Rick Ebbinge

Rick Ebbinge

Statistiques 2021

  • Courses courues : 98
  • Nb de victoires : 38
  • Nb de places : 65
  • Écart gagnant : 1
  • Réussite à la gagne : 39%
  • Réussite à la place : 66%
Musique : 0a 1a 4a 3a 3a 1a 8a 4a 2a 1a 1a 3a 2a 1a 4a 6a 6a Da
DateRangCatégorieAlloc.Dist.HippodromeChevalRed. KmSpé.
08/04/21 0 Trot 2 000€ 2 100m Hol-Wolvega Karl Schermer Attelé
08/04/21 1 Trot 2 000€ 2 100m Hol-Wolvega Ozak Vivantis 1'16''9 Attelé
08/04/21 4 Trot 5 000€ 2 100m Hol-Wolvega Velten Limelight 1'14''2 Attelé
08/04/21 3 Trot 5 000€ 2 100m Hol-Wolvega Favorite d'Atout 1'17''0 Attelé
06/04/21 3 Trot 1 500€ 2 300m Be-Mons Hattrick 1'17"1 Attelé
06/04/21 1 Trot 5 000€ 2 300m Be-Mons Flevo Renka 1'15"7 Attelé
06/04/21 8 Trot 4 000€ 2 300m Be-Mons Eternel des Hayes 1'16"2 Attelé
05/04/21 4 Trot 15 000€ 2 200m Ger-Hamburg Velten Swarovski 1'16"0 Attelé
05/04/21 2 Trot 2 000€ 2 200m Ger-Hamburg Flatrate Av 1'18"7 Attelé
05/04/21 1 Trot 5 000€ 2 200m Ger-Hamburg Ruby Barosso 1'16"0 Attelé
31/03/21 1 Trot 2 000€ 2 300m Be-Mons Feline Burgerheide 1'16''0 Attelé
31/03/21 3 Trot 4 000€ 2 300m Be-Mons Jungle Renka 1'14''1 Attelé
31/03/21 2 Trot 7 000€ 1 750m Be-Mons Gustafson 1'10''9 Attelé
28/03/21 1 Trot 1 200€ 1 920m Duindigt Velten Versailles 1'25"3 Attelé
28/03/21 4 Trot 1 100€ 2 000m Duindigt Karl Schermer 1'18"1 Attelé
28/03/21 6 Trot 1 100€ 2 000m Duindigt Jo Jo Harley 1'18"5 Attelé
28/03/21 6 Trot 1 400€ 2 000m Duindigt Hidde Greenwood 1'19"3 Attelé
28/03/21 D Trot 1 100€ 2 000m Duindigt Jetaime Fortuna Attelé
24/03/21 D Trot 2 200€ 2 300m Be-Mons Ozak Vivantis Attelé
24/03/21 5 Trot 2 500€ 2 300m Be-Mons Godine de Valforg 1'16''8 Attelé
24/03/21 5 Trot 2 500€ 2 300m Hol-Wolvega Godine de Valforg 1'16"8 Attelé
24/03/21 1 Trot 2 200€ 2 300m Be-Mons Hero d'hertals 1'16''2 Attelé
24/03/21 2 Trot 5 500€ 2 300m Be-Mons Velten Limelight 1'14''2 Attelé
24/03/21 2 Trot 5 500€ 2 300m Hol-Wolvega Velten Limelight 1'14"2 Attelé
24/03/21 1 Trot 5 000€ 2 840m Be-Mons Flag de Marions 1'15''8 Attelé
24/03/21 2 Trot 4 400€ 2 300m Be-Mons Nibali Vivantis 1'14''6 Attelé
17/03/21 1 Trot 2 000€ 2 300m Be-Mons Libera Dw Attelé
17/03/21 1 Trot 2 000€ 2 300m Be-Mons Kimberly Fortuna Attelé
17/03/21 D Trot 5 000€ 2 300m Be-Mons Indigo Attelé
17/03/21 3 Trot 8 000€ 2 840m Be-Mons Iron Vivant Attelé
16/03/21 1 Trot 37 000€ 2 150m Enghien Soisy Ahura Mazda Font 1'13"1 Attelé lire

Après avoir figuré au sein du peloton, a su se montrer nettement la plus forte pour finir.

10/03/21 1 Trot 2 000€ 2 300m Be-Mons Hachico 1'19''3 Attelé
10/03/21 6 Trot 5 000€ 2 300m Be-Mons Godine de Valforg 1'17''0 Attelé
10/03/21 D Trot 4 000€ 2 300m Be-Mons Karl Schermer Attelé
10/03/21 1 Trot 5 000€ 2 840m Be-Mons Flevo Renka 1'16''4 Attelé
05/03/21 1 Trot 2 000€ 2 300m Be-Mons Irvine Am Attelé
05/03/21 1 Trot 2 000€ 2 300m Be-Mons Jungle Renka Attelé
05/03/21 1 Trot 2 000€ 2 300m Be-Mons Ruby Barosso Attelé
05/03/21 2 Trot 6 000€ 2 840m Be-Mons Gustafson Attelé
05/03/21 3 Trot 4 000€ 2 300m Be-Mons Velten Swarovski Attelé
04/03/21 D Trot 33 000€ 2 700m Vincennes John King Boko Attelé
04/03/21 3 Trot 33 000€ 2 700m Vincennes Ahura Mazda Font 1'13"6 Attelé lire

Longtemps en queue de peloton, a progressé au sommet de la montée, se défendant bien jusqu'au bout.

03/03/21 1 Trot 18 000€ 2 850m Mauquenchy Flag de Marions 1'16"0 Attelé
03/03/21 1 Trot 20 000€ 2 850m Mauquenchy Good Morning Elge 1'15"7 Attelé
26/02/21 1 Trot 2 000€ 2 300m Be-Mons Hero d'hertals 1'17''1 Attelé
26/02/21 1 Trot 2 000€ 2 300m Be-Mons Nibali Vivantis 1'16''3 Attelé
26/02/21 1 Trot 5 000€ 2 300m Be-Mons Iron Vivant 1'14''8 Attelé
26/02/21 D Trot 5 000€ 2 840m Be-Mons Bleuet d'Airou Attelé
26/02/21 2 Trot 4 000€ 2 300m Be-Mons Atlantic Wise L 1'16''5 Attelé
23/02/21 1 Trot 3 000€ 2 300m Be-Mons Velten Limelight 1'16"0 Attelé